ICE342 BIKF-EFHK

Flight info

Callsign ICE342
Flight time N/A
Altitude 35000
Route LUTER2A LUTER DCT 64N010W 6330N00000E/N0451F350 DCT MORIG DCT TIGBA DCT UXADA Y349 AMROT Y362 LAKUT
Aircraft B38M/M-SDE1FGHILORVWXY/HB1

Departure

Time 2026-05-07 15:46
Airport Keflavik International Airport (BIKF)

Arrival

Time N/A
Airport Helsinki Vantaa Airport (EFHK)
Time Latitude Longitude Altitude Speed Heading
2026-05-07 15:15 63.99272 -22.62573 143 ft 0 kts 50°
2026-05-07 15:36 63.99266 -22.62591 143 ft 4 kts 61°
2026-05-07 15:37 63.99257 -22.62640 143 ft 3 kts 65°
2026-05-07 15:37 63.99251 -22.62695 143 ft 4 kts 98°
2026-05-07 15:37 63.99262 -22.62735 143 ft 4 kts 158°
2026-05-07 15:37 63.99288 -22.62746 143 ft 4 kts 179°
2026-05-07 15:38 63.99293 -22.62746 143 ft 0 kts 179°
2026-05-07 15:40 63.99281 -22.62745 143 ft 6 kts 178°
2026-05-07 15:41 63.99217 -22.62675 143 ft 12 kts 175°
2026-05-07 15:41 63.99174 -22.62660 143 ft 2 kts 130°
2026-05-07 15:41 63.99171 -22.62559 143 ft 12 kts 89°
2026-05-07 15:41 63.99173 -22.62313 143 ft 17 kts 91°
2026-05-07 15:42 63.99173 -22.62034 143 ft 18 kts 89°
2026-05-07 15:42 63.99174 -22.61741 146 ft 17 kts 91°
2026-05-07 15:42 63.99172 -22.61483 152 ft 15 kts 91°
2026-05-07 15:42 63.99170 -22.61262 156 ft 13 kts 91°
2026-05-07 15:43 63.99171 -22.61075 160 ft 11 kts 88°
2026-05-07 15:43 63.99114 -22.60938 165 ft 19 kts 179°
2026-05-07 15:43 63.98968 -22.60939 169 ft 22 kts 180°
2026-05-07 15:43 63.98804 -22.60937 165 ft 25 kts 180°
2026-05-07 15:44 63.98622 -22.60939 166 ft 26 kts 180°
2026-05-07 15:44 63.98440 -22.60936 168 ft 27 kts 179°
2026-05-07 15:44 63.98250 -22.60931 167 ft 28 kts 182°
2026-05-07 15:44 63.98055 -22.60939 170 ft 28 kts 179°
2026-05-07 15:45 63.97735 -22.60939 172 ft 29 kts 180°
2026-05-07 15:45 63.96635 -22.60945 139 ft 38 kts 179°
2026-05-07 15:45 63.96459 -22.60868 139 ft 21 kts 110°
2026-05-07 15:45 63.96466 -22.60583 146 ft 13 kts 64°
2026-05-07 15:46 63.96894 -22.60537 161 ft 88 kts
2026-05-07 15:46 63.97744 -22.60516 241 ft 147 kts
2026-05-07 15:46 63.98831 -22.60510 1050 ft 159 kts
2026-05-07 15:47 63.99926 -22.60518 2176 ft 156 kts
2026-05-07 15:47 64.01018 -22.60501 2983 ft 163 kts
2026-05-07 15:47 64.02207 -22.60474 3645 ft 178 kts
2026-05-07 15:47 64.03507 -22.60437 4249 ft 197 kts
2026-05-07 15:48 64.04887 -22.59757 4923 ft 211 kts 31°
2026-05-07 15:48 64.05937 -22.57344 5616 ft 225 kts 61°
2026-05-07 15:48 64.06322 -22.53740 6232 ft 245 kts 88°
2026-05-07 15:48 64.06294 -22.49800 7139 ft 252 kts 87°
2026-05-07 15:49 64.06299 -22.45691 7874 ft 264 kts 87°
2026-05-07 15:49 64.06311 -22.41463 8743 ft 271 kts 84°
2026-05-07 15:49 64.06473 -22.37048 9351 ft 288 kts 82°
2026-05-07 15:49 64.06646 -22.32336 9852 ft 307 kts 82°
2026-05-07 15:50 64.06817 -22.27314 10313 ft 325 kts 83°
2026-05-07 15:50 64.06989 -22.22053 10875 ft 337 kts 83°
2026-05-07 15:50 64.07159 -22.16690 11710 ft 340 kts 83°
2026-05-07 15:50 64.07329 -22.11261 12449 ft 346 kts 83°
2026-05-07 15:51 64.07499 -22.05741 13247 ft 349 kts 83°
2026-05-07 15:51 64.07665 -22.00235 14190 ft 340 kts 84°
2026-05-07 15:51 64.07754 -21.95051 14989 ft 327 kts 83°
2026-05-07 15:51 64.07940 -21.89820 15574 ft 336 kts 83°
2026-05-07 15:52 64.08063 -21.86180 15825 ft 346 kts 83°
2026-05-07 15:52 64.08239 -21.80588 16184 ft 359 kts 83°
2026-05-07 15:52 64.08464 -21.72956 16997 ft 364 kts 84°
2026-05-07 15:52 64.08575 -21.69109 17479 ft 366 kts 83°
2026-05-07 15:53 64.08742 -21.63270 18044 ft 371 kts 83°
2026-05-07 15:53 64.08910 -21.57343 18679 ft 374 kts 84°
2026-05-07 15:53 64.09076 -21.51378 19209 ft 378 kts 84°
2026-05-07 15:53 64.09241 -21.45347 19752 ft 380 kts 84°
2026-05-07 15:54 64.09404 -21.39296 20288 ft 383 kts 84°
2026-05-07 15:54 64.09574 -21.32899 20845 ft 386 kts 84°
2026-05-07 15:54 64.09859 -21.20554 21928 ft 392 kts 84°
2026-05-07 15:54 64.10217 -21.07999 22905 ft 398 kts 84°
2026-05-07 15:55 64.10518 -20.95288 23854 ft 404 kts 83°
2026-05-07 15:55 64.10817 -20.82332 24638 ft 409 kts 83°
2026-05-07 15:55 64.11106 -20.69251 25416 ft 414 kts 85°
2026-05-07 15:55 64.11397 -20.56014 26154 ft 419 kts 83°
2026-05-07 15:56 64.11653 -20.42604 26878 ft 424 kts 84°
2026-05-07 15:56 64.11987 -20.29239 27569 ft 429 kts 84°
2026-05-07 15:56 64.12277 -20.15519 28246 ft 433 kts 83°
2026-05-07 15:56 64.12614 -20.01684 28885 ft 439 kts 84°
2026-05-07 15:57 64.12871 -19.87606 29518 ft 443 kts 84°
2026-05-07 15:57 64.13203 -19.73484 30092 ft 447 kts 84°
2026-05-07 15:57 64.13440 -19.59157 30559 ft 452 kts 84°
2026-05-07 15:57 64.13728 -19.44691 31030 ft 456 kts 84°
2026-05-07 15:58 64.13997 -19.30094 31460 ft 460 kts 85°
2026-05-07 15:58 64.14222 -19.15413 32051 ft 460 kts 85°
2026-05-07 15:58 64.14451 -19.00743 32608 ft 461 kts 86°
2026-05-07 15:58 64.14682 -18.86056 33154 ft 461 kts 85°
2026-05-07 15:59 64.14837 -18.71508 33684 ft 462 kts 86°
2026-05-07 15:59 64.15046 -18.56787 34214 ft 462 kts 86°
2026-05-07 15:59 64.15214 -18.42067 34601 ft 463 kts 86°
2026-05-07 15:59 64.15347 -18.27318 35017 ft 463 kts 86°
2026-05-07 16:00 64.15362 -18.10303 35098 ft 466 kts 89°
2026-05-07 16:00 64.15689 -17.87736 35160 ft 469 kts 87°
2026-05-07 16:01 64.15810 -17.64860 35175 ft 469 kts 86°
2026-05-07 16:01 64.15981 -17.34879 35179 ft 470 kts 88°
2026-05-07 16:02 64.16049 -17.04922 35174 ft 470 kts 88°
2026-05-07 16:02 64.16080 -16.75107 35174 ft 471 kts 88°
2026-05-07 16:03 64.16049 -16.45073 35162 ft 471 kts 89°
2026-05-07 16:03 64.15944 -16.22709 35158 ft 472 kts 89°
2026-05-07 16:04 64.15873 -16.07682 35152 ft 471 kts 89°
2026-05-07 16:04 64.15788 -15.92693 35146 ft 472 kts 90°
2026-05-07 16:05 64.15686 -15.77606 35138 ft 472 kts 90°
2026-05-07 16:05 64.15569 -15.62576 35131 ft 472 kts 90°
2026-05-07 16:06 64.15437 -15.47542 35132 ft 473 kts 90°
2026-05-07 16:06 64.15289 -15.32550 35132 ft 473 kts 90°
2026-05-07 16:07 64.15126 -15.17479 35130 ft 473 kts 91°
2026-05-07 16:07 64.14946 -15.02372 35131 ft 474 kts 91°
2026-05-07 16:08 64.14751 -14.87267 35125 ft 474 kts 91°
2026-05-07 16:08 64.14540 -14.72145 35127 ft 475 kts 91°
2026-05-07 16:09 64.14313 -14.57087 35122 ft 475 kts 91°
2026-05-07 16:09 64.14071 -14.41946 35119 ft 476 kts 92°
2026-05-07 16:10 64.13812 -14.26800 35113 ft 476 kts 92°
2026-05-07 16:10 64.13537 -14.11609 35112 ft 477 kts 92°
2026-05-07 16:11 64.13246 -13.96431 35114 ft 477 kts 92°
2026-05-07 16:11 64.12939 -13.81240 35110 ft 477 kts 92°
2026-05-07 16:12 64.12616 -13.66042 35099 ft 478 kts 93°
2026-05-07 16:12 64.12276 -13.50843 35102 ft 479 kts 93°
2026-05-07 16:13 64.11921 -13.35623 35091 ft 479 kts 93°
2026-05-07 16:13 64.11551 -13.20454 35094 ft 480 kts 93°
2026-05-07 16:14 64.11165 -13.05292 35086 ft 480 kts 94°
2026-05-07 16:14 64.10956 -12.97360 35082 ft 480 kts 94°
2026-05-07 16:15 64.10543 -12.82100 35080 ft 480 kts 94°
2026-05-07 16:15 64.10114 -12.66818 35073 ft 481 kts 94°
2026-05-07 16:16 64.09669 -12.51549 35069 ft 482 kts 94°
2026-05-07 16:16 64.09207 -12.36260 35065 ft 482 kts 94°
2026-05-07 16:17 64.08733 -12.21072 35060 ft 482 kts 95°
2026-05-07 16:17 64.08237 -12.05763 35059 ft 483 kts 95°
2026-05-07 16:18 64.07726 -11.90470 35055 ft 483 kts 95°
2026-05-07 16:18 64.07199 -11.75151 35051 ft 483 kts 95°
2026-05-07 16:19 64.06654 -11.59824 35043 ft 484 kts 95°
2026-05-07 16:19 64.06094 -11.44505 35040 ft 484 kts 95°
2026-05-07 16:20 64.05516 -11.29161 35040 ft 484 kts 96°
2026-05-07 16:20 64.04927 -11.13950 35031 ft 485 kts 96°
2026-05-07 16:21 64.04318 -10.98598 35032 ft 485 kts 96°
2026-05-07 16:21 64.03698 -10.83270 35031 ft 486 kts 96°
2026-05-07 16:22 64.03061 -10.67906 35026 ft 485 kts 96°
2026-05-07 16:22 64.02410 -10.52544 35026 ft 486 kts 96°
2026-05-07 16:23 64.01746 -10.37267 35017 ft 486 kts 97°
2026-05-07 16:23 64.01066 -10.21915 35018 ft 486 kts 97°
2026-05-07 16:24 64.00370 -10.06582 35014 ft 487 kts 97°
2026-05-07 16:24 63.99984 -9.91063 35014 ft 488 kts 93°
2026-05-07 16:25 63.99741 -9.75719 35005 ft 488 kts 93°
2026-05-07 16:25 63.99474 -9.60233 35001 ft 489 kts 93°
2026-05-07 16:26 63.99191 -9.44771 35004 ft 488 kts 94°
2026-05-07 16:26 63.98891 -9.29278 35002 ft 489 kts 94°
2026-05-07 16:27 63.98575 -9.13819 34995 ft 488 kts 94°
2026-05-07 16:27 63.98242 -8.98350 34994 ft 488 kts 94°
2026-05-07 16:28 63.97893 -8.82888 34994 ft 488 kts 94°
2026-05-07 16:28 63.97528 -8.67433 34993 ft 489 kts 94°
2026-05-07 16:29 63.97147 -8.51996 34992 ft 489 kts 94°
2026-05-07 16:29 63.96749 -8.36619 34985 ft 489 kts 94°
2026-05-07 16:30 63.96335 -8.21182 34988 ft 489 kts 95°
2026-05-07 16:30 63.95904 -8.05728 34988 ft 489 kts 95°
2026-05-07 16:31 63.95456 -7.90283 34980 ft 489 kts 95°
2026-05-07 16:31 63.94992 -7.74832 34977 ft 489 kts 95°
2026-05-07 16:32 63.94514 -7.59494 34980 ft 489 kts 95°
2026-05-07 16:32 63.94016 -7.44058 34976 ft 489 kts 95°
2026-05-07 16:33 63.93504 -7.28651 34979 ft 489 kts 95°
2026-05-07 16:33 63.92974 -7.13239 34980 ft 489 kts 95°
2026-05-07 16:34 63.92427 -6.97802 34978 ft 489 kts 95°
2026-05-07 16:34 63.91868 -6.82479 34974 ft 489 kts 95°
2026-05-07 16:35 63.91288 -6.67057 34974 ft 489 kts 95°
2026-05-07 16:35 63.90692 -6.51636 34978 ft 489 kts 96°
2026-05-07 16:36 63.90084 -6.36334 34975 ft 489 kts 96°
2026-05-07 16:36 63.89456 -6.20961 34977 ft 489 kts 96°
2026-05-07 16:37 63.88812 -6.05588 34975 ft 489 kts 96°
2026-05-07 16:37 63.88152 -5.90227 34977 ft 489 kts 96°
2026-05-07 16:38 63.87476 -5.74883 34974 ft 489 kts 96°
2026-05-07 16:38 63.86789 -5.59641 34977 ft 488 kts 96°
2026-05-07 16:39 63.86080 -5.44315 34975 ft 488 kts 96°
2026-05-07 16:39 63.85444 -5.30846 34976 ft 488 kts 96°
2026-05-07 16:40 63.84830 -5.18097 34974 ft 489 kts 97°
2026-05-07 16:40 63.83954 -5.00279 34972 ft 489 kts 97°
2026-05-07 16:41 63.83312 -4.87540 34970 ft 489 kts 97°
2026-05-07 16:41 63.82528 -4.72249 34973 ft 489 kts 97°
2026-05-07 16:42 63.81726 -4.56948 34973 ft 489 kts 97°
2026-05-07 16:42 63.80908 -4.41636 34977 ft 489 kts 97°
2026-05-07 16:43 63.80073 -4.26347 34973 ft 489 kts 97°
2026-05-07 16:43 63.79221 -4.11027 34984 ft 489 kts 97°
2026-05-07 16:44 63.78360 -3.95849 34979 ft 490 kts 98°
2026-05-07 16:44 63.77478 -3.80599 34982 ft 490 kts 98°
2026-05-07 16:45 63.76577 -3.65326 34981 ft 490 kts 98°
2026-05-07 16:45 63.75661 -3.50065 34983 ft 490 kts 98°
2026-05-07 16:46 63.74728 -3.34797 34984 ft 490 kts 98°
2026-05-07 16:46 63.73780 -3.19553 34987 ft 490 kts 98°
2026-05-07 16:47 63.72822 -3.04427 34988 ft 490 kts 98°
2026-05-07 16:47 63.71842 -2.89217 34982 ft 490 kts 98°
2026-05-07 16:48 63.70845 -2.73991 34989 ft 490 kts 99°
2026-05-07 16:48 63.69832 -2.58786 34995 ft 490 kts 99°
2026-05-07 16:49 63.68803 -2.43579 34996 ft 490 kts 99°
2026-05-07 16:49 63.67797 -2.28961 34997 ft 490 kts 99°
2026-05-07 16:50 63.66737 -2.13793 34993 ft 490 kts 99°
2026-05-07 16:50 63.65668 -1.98729 35001 ft 490 kts 99°
2026-05-07 16:51 63.64576 -1.83574 34996 ft 490 kts 99°
2026-05-07 16:51 63.63467 -1.68425 35003 ft 490 kts 100°
2026-05-07 16:52 63.62343 -1.53303 34998 ft 490 kts 100°
2026-05-07 16:52 63.61205 -1.38202 35004 ft 490 kts 100°
2026-05-07 16:53 63.60050 -1.23108 35003 ft 490 kts 100°
2026-05-07 16:53 63.58879 -1.08021 35010 ft 490 kts 100°
2026-05-07 16:54 63.57701 -0.93050 35012 ft 490 kts 100°
2026-05-07 16:54 63.56505 -0.77987 35012 ft 490 kts 101°
2026-05-07 16:55 63.55292 -0.62921 35011 ft 490 kts 101°
2026-05-07 16:55 63.54064 -0.47845 35018 ft 490 kts 101°
2026-05-07 16:56 63.52823 -0.32805 35019 ft 491 kts 101°
2026-05-07 16:56 63.50934 -0.10262 35024 ft 491 kts 101°
2026-05-07 16:57 63.49960 0.04754 35032 ft 491 kts 92°
2026-05-07 16:57 63.49652 0.20035 35030 ft 491 kts 92°
2026-05-07 16:58 63.49361 0.35328 35032 ft 491 kts 92°
2026-05-07 16:58 63.49057 0.50605 35034 ft 491 kts 92°
2026-05-07 16:59 63.48738 0.65877 35043 ft 491 kts 93°
2026-05-07 16:59 63.48401 0.81153 35046 ft 491 kts 93°
2026-05-07 17:00 63.48049 0.96429 35040 ft 491 kts 93°
2026-05-07 17:00 63.47680 1.11697 35055 ft 491 kts 93°
2026-05-07 17:01 63.47295 1.26982 35059 ft 491 kts 93°
2026-05-07 17:01 63.46896 1.42149 35052 ft 491 kts 94°
2026-05-07 17:02 63.46479 1.57397 35060 ft 491 kts 94°
2026-05-07 17:02 63.46044 1.72685 35059 ft 491 kts 94°
2026-05-07 17:03 63.45594 1.87943 35061 ft 492 kts 94°
2026-05-07 17:03 63.45128 2.03193 35061 ft 492 kts 94°
2026-05-07 17:04 63.44645 2.18440 35066 ft 492 kts 94°
2026-05-07 17:04 63.44149 2.33584 35069 ft 492 kts 95°
2026-05-07 17:05 63.43634 2.48834 35074 ft 492 kts 95°
2026-05-07 17:05 63.43103 2.64067 35077 ft 492 kts 95°
2026-05-07 17:06 63.42554 2.79328 35073 ft 492 kts 95°
2026-05-07 17:06 63.41990 2.94550 35076 ft 492 kts 95°
2026-05-07 17:07 63.41409 3.09823 35078 ft 492 kts 95°
2026-05-07 17:07 63.40816 3.24952 35088 ft 493 kts 95°
2026-05-07 17:08 63.40201 3.40204 35086 ft 493 kts 96°
2026-05-07 17:08 63.39570 3.55469 35089 ft 493 kts 96°
2026-05-07 17:09 63.38558 3.79283 35091 ft 493 kts 96°
2026-05-07 17:09 63.37213 4.09727 35095 ft 494 kts 96°
2026-05-07 17:10 63.35890 4.40096 35095 ft 494 kts 93°
2026-05-07 17:10 63.35101 4.70663 35103 ft 494 kts 95°
2026-05-07 17:11 63.34136 5.01280 35102 ft 495 kts 95°
2026-05-07 17:11 63.33158 5.31708 35111 ft 495 kts 95°
2026-05-07 17:12 63.32140 5.62344 35110 ft 495 kts 96°
2026-05-07 17:12 63.31009 5.92918 35114 ft 496 kts 96°
2026-05-07 17:13 63.29818 6.23326 35114 ft 496 kts 96°
2026-05-07 17:13 63.28576 6.53882 35120 ft 497 kts 96°
2026-05-07 17:14 63.27887 6.69716 35114 ft 497 kts 97°
2026-05-07 17:14 63.27216 6.85008 35128 ft 497 kts 97°
2026-05-07 17:15 63.26530 7.00290 35119 ft 498 kts 97°
2026-05-07 17:15 63.25825 7.15611 35135 ft 498 kts 97°
2026-05-07 17:16 63.25109 7.30829 35136 ft 498 kts 97°
2026-05-07 17:16 63.24371 7.46148 35146 ft 499 kts 97°
2026-05-07 17:17 63.23617 7.61445 34839 ft 500 kts 97°
2026-05-07 17:17 63.23231 7.69149 34955 ft 503 kts 97°
2026-05-07 17:17 63.22839 7.76874 35114 ft 504 kts 97°
2026-05-07 17:18 63.22037 7.92449 35152 ft 512 kts 97°
2026-05-07 17:18 63.21209 8.08196 35156 ft 515 kts 97°
2026-05-07 17:19 63.20363 8.23921 35149 ft 516 kts 97°
2026-05-07 17:19 63.19496 8.39723 35143 ft 516 kts 98°
2026-05-07 17:20 63.18610 8.55531 35137 ft 516 kts 98°
2026-05-07 17:20 63.17707 8.71312 35144 ft 517 kts 98°
2026-05-07 17:21 63.16793 8.86990 35132 ft 517 kts 98°
2026-05-07 17:21 63.15853 9.02783 35144 ft 517 kts 98°
2026-05-07 17:22 63.14897 9.18562 35148 ft 517 kts 98°
2026-05-07 17:22 63.13922 9.34333 35148 ft 517 kts 98°
2026-05-07 17:23 63.12931 9.50090 35147 ft 517 kts 98°
2026-05-07 17:23 63.11921 9.65847 35155 ft 518 kts 99°
2026-05-07 17:24 63.10900 9.81503 35148 ft 517 kts 99°
2026-05-07 17:24 63.09855 9.97244 35151 ft 517 kts 99°
2026-05-07 17:25 63.08793 10.12966 35150 ft 518 kts 99°
2026-05-07 17:25 63.07714 10.28687 35157 ft 518 kts 99°
2026-05-07 17:26 63.06802 10.41748 35152 ft 518 kts 99°
2026-05-07 17:26 63.05509 10.59982 35154 ft 518 kts 99°
2026-05-07 17:27 63.04384 10.75568 35151 ft 518 kts 99°
2026-05-07 17:27 63.03428 10.88620 35157 ft 518 kts 99°
2026-05-07 17:28 63.02266 11.04268 35155 ft 518 kts 99°
2026-05-07 17:28 63.01086 11.19910 35158 ft 518 kts 100°
2026-05-07 17:29 62.99916 11.35183 35156 ft 518 kts 100°
2026-05-07 17:29 62.98706 11.50818 35153 ft 518 kts 100°
2026-05-07 17:30 62.97486 11.66372 35155 ft 518 kts 100°
2026-05-07 17:30 62.96245 11.81974 35154 ft 518 kts 100°
2026-05-07 17:31 62.94988 11.97573 35152 ft 518 kts 100°
2026-05-07 17:31 62.93586 12.13128 35141 ft 517 kts 108°
2026-05-07 17:32 62.91381 12.28076 35146 ft 518 kts 109°
2026-05-07 17:32 62.89109 12.43078 35138 ft 518 kts 110°
2026-05-07 17:33 62.86819 12.58041 35139 ft 518 kts 110°
2026-05-07 17:33 62.84510 12.73010 35133 ft 518 kts 110°
2026-05-07 17:34 62.82185 12.87958 35133 ft 519 kts 110°
2026-05-07 17:34 62.79843 13.02882 35122 ft 518 kts 110°
2026-05-07 17:35 62.77494 13.17735 35124 ft 518 kts 110°
2026-05-07 17:35 62.75121 13.32611 35120 ft 519 kts 110°
2026-05-07 17:36 62.72733 13.47458 35117 ft 519 kts 110°
2026-05-07 17:36 62.70332 13.62267 35115 ft 519 kts 110°
2026-05-07 17:37 62.67930 13.76959 35113 ft 519 kts 111°
2026-05-07 17:37 62.65492 13.91758 35116 ft 519 kts 111°
2026-05-07 17:38 62.63039 14.06525 35112 ft 519 kts 111°
2026-05-07 17:38 62.60567 14.21288 35117 ft 519 kts 111°
2026-05-07 17:39 62.58085 14.35995 35114 ft 519 kts 111°
2026-05-07 17:39 62.55599 14.50610 35124 ft 519 kts 111°
2026-05-07 17:40 62.53085 14.65273 35120 ft 519 kts 111°
2026-05-07 17:40 62.50557 14.79911 35115 ft 519 kts 111°
2026-05-07 17:41 62.48011 14.94536 35121 ft 519 kts 111°
2026-05-07 17:41 62.45450 15.09130 35121 ft 519 kts 112°
2026-05-07 17:42 62.42873 15.23706 35128 ft 519 kts 112°
2026-05-07 17:42 62.40284 15.38243 35125 ft 519 kts 112°
2026-05-07 17:43 62.37678 15.52758 35129 ft 519 kts 112°
2026-05-07 17:43 62.35075 15.67156 35123 ft 519 kts 112°
2026-05-07 17:44 62.32437 15.81633 35127 ft 518 kts 112°
2026-05-07 17:44 62.29787 15.96070 35131 ft 518 kts 112°
2026-05-07 17:45 62.27128 16.10447 35123 ft 518 kts 113°
2026-05-07 17:45 62.24454 16.24807 35125 ft 518 kts 113°
2026-05-07 17:46 62.21784 16.39035 35134 ft 517 kts 113°